Wind_Speed
20 19 19 18 19 19 19 20 19 19 17 17 16 15 14 13 11 10 9 8 8 8 7 7 6 5 5 6 6 6 6 6 6 6 6 6 7 7 7 7 8 8 8 9 10 10 10 10 9
20 19 19 19 20 20 20 20 19 19 17 17 16 15 13 12 11 10 10 9 8 8 8 7 5 5 5 5 6 6 6 6 6 6 6 7 8 7 7 7 8 8 8 9 9 9 10 9 9
18 19 19 20 20 21 21 20 19 18 17 17 16 15 13 12 12 11 10 9 8 8 7 7 6 6 6 6 5 5 6 6 6 6 6 7 8 8 7 8 8 8 9 9 8 9 9 9 8
16 18 19 20 20 20 21 21 20 19 18 17 16 15 14 13 13 12 11 10 9 8 8 8 7 7 6 6 6 6 6 7 6 6 6 7 8 7 7 8 9 9 9 8 8 9 9 8 8
15 17 18 19 19 20 21 21 20 19 18 18 17 16 15 14 14 13 13 12 10 10 9 9 9 8 7 7 7 8 7 7 7 7 7 8 8 7 8 9 10 9 8 8 7 8 8 7 7
14 15 16 18 18 19 19 20 20 19 18 18 17 17 17 16 15 14 14 14 12 12 11 9 9 9 9 8 8 8 8 8 8 8 8 7 8 8 8 8 8 9 9 8 7 7 8 7 6
12 13 15 16 16 17 18 20 19 19 18 18 18 17 18 17 16 15 14 15 14 13 12 11 11 10 9 9 9 8 9 9 9 8 8 8 8 8 8 8 8 8 8 7 7 7 7 7 6
12 12 14 15 15 17 19 19 19 19 18 18 18 18 18 17 17 15 15 14 14 14 13 12 11 11 10 9 9 8 8 8 8 7 8 8 7 7 7 7 7 7 7 7 6 7 7 7 6
12 11 12 15 16 17 18 19 19 18 18 19 19 19 18 18 17 16 16 15 14 14 13 12 12 11 11 10 9 8 8 8 7 8 8 8 7 7 7 6 6 6 7 7 6 6 6 6 6
9 11 12 14 16 17 18 18 19 18 18 18 18 18 18 17 16 16 17 15 14 14 13 13 12 12 11 11 10 9 8 8 8 8 8 8 8 7 7 6 6 7 7 6 6 7 6 5 6
8 8 11 13 15 17 18 19 18 18 18 19 18 18 17 17 16 16 16 16 15 14 13 12 12 12 12 10 9 9 9 8 8 8 8 8 8 8 8 7 6 6 6 6 5 5 5 5 5
7 8 11 12 15 16 17 18 18 18 18 18 18 18 17 17 16 15 15 16 16 15 14 13 11 11 11 11 10 9 8 8 7 7 7 8 8 8 7 7 6 6 6 6 5 5 5 5 4
6 8 9 10 12 14 16 17 18 18 18 18 18 18 17 17 16 16 16 17 16 16 15 14 13 12 12 12 11 10 9 8 8 7 7 7 7 8 7 6 6 6 6 6 6 5 4 4 3
6 4 6 8 9 11 13 15 16 17 18 18 18 17 17 17 17 16 16 16 16 16 15 14 14 13 12 12 12 11 9 8 7 7 6 6 7 7 7 7 6 6 6 6 5 4 4 4 3
5 3 3 5 7 10 11 12 14 15 17 17 17 17 17 17 16 16 16 16 15 15 15 14 14 14 13 13 13 13 11 10 8 7 8 7 7 6 7 6 6 6 5 5 4 4 4 3 3
6 2 1 2 5 8 10 12 13 14 15 16 16 16 16 16 16 16 16 15 15 15 14 13 13 13 13 13 12 13 12 11 10 9 8 8 7 6 6 6 6 5 4 4 3 3 3 3 2
5 2 2 1 5 7 9 10 12 13 14 15 16 15 15 15 15 15 16 16 15 14 14 13 13 13 13 13 12 12 11 11 10 9 9 8 7 6 6 5 5 4 4 3 2 1 2 2 2
6 3 1 1 4 7 8 10 10 11 12 13 14 14 14 14 14 14 14 15 15 14 14 13 13 13 13 13 12 11 11 10 10 9 9 8 7 7 5 6 5 4 4 3 2 2 2 2 2
8 6 3 2 4 6 7 9 8 9 10 11 11 12 13 13 13 13 13 13 13 13 14 13 13 12 12 12 12 11 10 10 9 8 8 7 6 6 5 4 5 4 3 3 3 3 3 3 3
11 8 5 4 5 6 6 7 7 7 8 9 9 10 11 11 12 12 11 12 12 12 12 12 12 12 11 11 11 10 10 9 8 8 8 7 7 6 5 4 4 5 4 4 3 3 4 4 4
13 11 8 6 6 6 7 8 7 6 6 7 7 8 8 9 11 12 12 11 11 11 11 11 10 10 10 10 10 10 10 10 9 9 8 8 7 7 6 6 5 5 4 4 4 5 5 5 6
15 13 11 10 10 9 9 9 8 7 6 7 7 7 8 8 10 11 11 11 10 9 9 10 10 9 9 9 9 9 10 9 9 8 7 7 7 6 5 5 5 6 5 5 5 5 6 6 7
17 16 14 13 13 11 11 10 9 9 8 8 9 7 7 7 8 10 10 10 10 9 8 8 9 9 9 9 9 9 9 8 8 7 7 7 6 6 5 5 5 6 6 6 6 6 6 7 7
19 19 17 17 15 13 12 12 10 9 7 8 9 7 6 7 7 8 8 8 8 8 8 7 8 8 8 8 8 8 8 8 7 7 7 7 6 6 6 5 6 6 6 6 6 7 8 8 8
23 22 21 20 18 16 13 13 10 9 8 8 8 6 7 6 5 6 7 7 8 8 7 6 7 8 8 8 8 7 8 8 8 7 7 7 6 6 7 6 6 7 7 7 7 8 8 8 8
26 25 24 23 21 18 16 15 12 9 9 10 8 7 7 5 5 5 5 6 6 7 7 7 7 7 8 8 8 7 8 8 8 8 7 8 7 7 7 7 7 7 8 8 8 9 9 10 10
26 27 25 24 23 21 18 16 13 12 11 12 10 8 7 6 5 5 6 6 6 7 8 8 8 7 7 8 8 7 8 8 8 8 8 8 8 7 7 7 7 8 8 9 9 10 11 11 12
26 25 27 27 25 24 22 19 16 14 12 13 12 10 8 7 6 6 6 7 8 8 8 8 8 8 8 8 9 8 8 8 8 9 9 9 8 8 8 9 9 9 10 11 11 12 12 13 13
27 28 28 28 28 26 25 21 16 15 14 13 12 11 9 7 7 6 7 8 8 9 9 8 8 8 8 8 9 9 8 9 9 9 9 9 9 10 10 10 11 11 11 12 12 13 14 14 15
27 27 28 29 29 28 26 23 18 16 14 13 14 14 11 9 8 8 8 9 10 10 9 9 9 9 8 9 10 10 9 9 10 10 10 10 11 11 12 12 12 12 13 13 14 15 16 16 16
Wind_Direction
61 57 53 50 48 47 46 44 43 43 41 42 40 39 41 43 44 45 43 40 43 48 54 59 72 87 92 84 81 84 87 93 98 103 112 121 125 130 134 134 137 137 140 144 147 145 145 141 136
58 54 52 49 49 46 45 42 42 42 40 40 38 38 40 43 44 45 45 42 45 49 54 63 79 83 84 84 80 87 92 97 101 106 111 113 122 126 129 130 133 137 141 147 148 151 149 145 142
57 51 48 48 48 45 44 42 41 39 38 40 38 38 38 41 44 48 51 50 48 51 59 69 78 78 82 82 85 89 92 99 102 109 112 114 123 129 131 133 136 138 141 147 148 150 151 145 142
51 49 45 44 44 46 44 41 40 39 37 39 39 38 39 42 46 48 51 52 50 54 65 71 79 79 78 80 84 87 91 98 104 112 118 122 126 127 130 135 136 140 141 142 143 147 142 140 142
49 48 45 41 41 43 42 41 40 38 37 41 40 37 38 46 49 51 52 51 54 61 68 71 70 73 78 83 86 90 92 97 106 116 122 125 126 125 126 137 136 136 137 138 141 146 144 141 139
45 46 45 41 39 40 40 42 40 38 37 40 39 37 41 50 53 53 51 53 55 58 63 67 65 71 77 79 86 94 97 100 106 112 119 124 123 125 124 130 137 140 140 142 141 148 144 144 143
44 48 43 41 38 38 41 42 40 38 36 38 39 39 42 50 52 51 51 52 52 56 61 65 65 70 76 80 85 90 94 97 102 105 111 119 122 125 126 125 133 139 148 148 142 147 147 149 151
49 47 41 39 39 37 41 41 39 38 36 36 37 39 43 48 51 52 52 53 53 57 61 64 66 71 78 80 82 88 93 95 99 101 103 111 116 118 124 128 133 140 148 144 143 147 147 154 155
48 45 39 39 38 38 41 40 39 38 37 38 39 40 43 48 49 53 55 56 56 58 62 63 68 72 76 80 80 81 84 87 94 99 102 104 112 115 122 126 133 139 140 137 139 139 135 146 157
56 42 37 40 39 37 39 40 38 37 38 39 40 41 44 49 50 52 54 55 55 59 61 61 66 69 71 72 72 73 77 85 91 97 103 106 112 116 115 118 128 137 135 132 129 134 141 151 159
59 43 34 36 38 37 37 39 37 37 38 40 40 40 42 46 47 49 51 55 58 60 59 60 68 70 68 67 70 75 78 86 91 97 103 107 107 106 109 122 131 132 125 121 126 140 148 153 159
60 49 41 38 38 35 34 37 38 38 40 40 40 41 41 46 49 51 51 54 60 62 62 64 68 69 66 64 68 74 78 82 89 101 108 106 102 100 110 117 126 124 121 126 129 137 140 145 149
60 42 37 35 36 33 35 36 36 36 38 38 39 43 45 46 52 54 53 53 58 60 62 64 65 66 66 64 65 70 78 89 89 90 95 100 101 98 101 99 105 117 120 117 109 115 116 120 136
88 53 23 27 28 33 37 36 36 35 37 36 38 42 46 46 51 53 54 53 56 58 61 61 61 64 66 65 64 65 70 82 83 84 91 101 108 101 86 91 96 101 108 111 113 112 104 104 106
133 112 26 19 18 25 28 33 34 34 36 36 37 40 44 47 51 53 54 54 54 57 60 61 62 63 63 63 67 68 73 75 78 82 80 95 103 94 84 84 90 90 95 102 100 97 87 79 85
157 140 31 11 11 19 19 27 30 30 32 34 36 38 42 45 49 52 53 54 54 56 59 61 63 64 64 64 68 67 68 70 72 73 75 82 89 91 83 84 88 88 87 91 92 84 80 69 76
166 153 121 28 358 4 11 20 24 28 29 31 33 38 43 43 45 50 51 52 53 56 59 61 64 65 66 67 67 64 67 67 69 71 71 73 75 75 78 83 79 72 64 66 75 78 67 48 26
176 178 194 288 336 347 356 5 14 16 24 27 30 35 41 42 43 47 49 50 53 55 57 60 63 65 66 68 68 69 66 64 65 67 68 68 67 66 70 74 72 65 54 51 51 34 18 4 333
185 194 234 262 311 330 338 354 4 9 20 25 27 31 39 43 42 44 48 48 50 52 55 58 61 64 66 66 66 65 61 59 60 61 62 61 59 57 56 60 52 51 51 42 30 14 2 347 325
205 213 228 253 272 298 315 332 340 356 10 21 21 24 34 42 43 42 45 47 46 50 53 56 59 61 62 63 61 58 55 55 59 57 56 56 55 49 38 35 34 36 31 22 8 352 345 333 325
211 219 225 241 253 263 286 300 313 332 352 6 14 16 26 36 43 42 40 40 42 47 51 52 53 55 57 57 55 52 52 51 51 51 48 48 50 45 35 27 21 17 11 3 352 339 329 324 317
215 220 226 237 250 258 272 285 305 313 324 340 356 358 15 24 34 37 37 37 38 42 45 47 46 46 48 49 48 44 43 44 45 42 38 41 40 32 23 16 4 355 353 353 348 340 324 316 311
215 218 224 230 241 253 265 270 284 298 310 327 335 345 1 12 28 31 31 33 33 34 36 39 38 43 44 42 41 38 38 39 37 35 36 31 22 18 15 8 0 351 349 347 341 336 326 316 312
213 214 223 229 235 241 247 257 263 280 303 320 324 334 345 354 6 23 25 27 26 25 26 33 34 34 33 32 31 32 33 32 29 27 24 24 21 18 11 1 359 357 351 345 340 337 333 327 319
216 217 223 229 232 236 238 249 267 275 287 305 317 322 331 336 349 3 10 13 13 12 14 16 27 27 27 26 23 22 18 17 19 20 17 16 12 10 8 4 359 356 351 346 344 341 340 335 331
221 224 228 231 233 236 242 250 260 265 278 291 298 305 323 323 322 331 346 357 358 359 5 8 8 9 11 16 19 18 13 10 9 11 16 18 15 9 7 2 356 351 347 344 342 338 333 333 330
224 227 231 234 235 237 238 244 252 260 268 280 284 289 301 308 305 304 316 332 340 345 348 352 355 357 357 356 1 2 3 1 1 2 7 9 7 1 357 354 348 342 338 334 331 328 326 328 327
226 226 228 231 234 238 237 244 251 255 266 274 279 286 289 290 289 294 305 318 324 329 329 329 335 340 344 348 350 352 352 351 352 354 355 355 353 349 345 340 339 338 332 327 324 323 322 320 318
224 225 226 230 234 239 239 240 245 252 262 272 281 284 276 269 275 284 296 306 307 310 317 318 321 322 328 337 340 341 344 346 345 344 344 341 339 336 333 331 328 328 325 322 320 319 318 316 313
227 229 229 230 234 236 237 238 240 244 252 268 278 282 275 267 274 279 287 294 298 300 306 313 318 318 317 325 331 334 337 339 339 338 338 335 331 328 326 323 322 321 320 316 313 312 313 314 314
Height
5903 5902 5902 5902 5900 5899 5896 5895 5894 5893 5891 5889 5887 5886 5884 5883 5882 5882 5878 5875 5874 5874 5873 5872 5872 5871 5870 5870 5870 5870 5869 5869 5869 5869 5869 5869 5870 5870 5871 5871 5872 5872 5873 5874 5875 5876 5877 5878 5878
5906 5905 5905 5904 5901 5900 5899 5897 5896 5895 5892 5890 5888 5887 5886 5884 5882 5880 5878 5876 5875 5874 5874 5873 5872 5872 5872 5871 5871 5871 5870 5871 5871 5870 5870 5870 5871 5871 5872 5872 5872 5873 5873 5874 5875 5876 5877 5879 5879
5908 5908 5908 5906 5903 5903 5901 5900 5898 5896 5894 5892 5891 5889 5887 5885 5883 5880 5879 5878 5876 5875 5874 5874 5873 5873 5873 5872 5872 5872 5872 5872 5872 5872 5871 5872 5872 5872 5872 5873 5873 5874 5874 5875 5876 5877 5878 5879 5880
5911 5911 5909 5907 5906 5905 5903 5902 5901 5899 5897 5895 5892 5891 5888 5886 5883 5882 5880 5879 5877 5876 5875 5875 5874 5874 5874 5874 5874 5874 5873 5873 5873 5873 5873 5873 5873 5873 5873 5873 5873 5874 5875 5876 5877 5878 5879 5879 5881
5914 5912 5910 5909 5908 5907 5906 5905 5903 5901 5899 5896 5894 5892 5890 5887 5884 5883 5882 5880 5879 5878 5877 5876 5876 5875 5875 5875 5875 5875 5875 5875 5875 5874 5874 5874 5874 5875 5875 5875 5875 5876 5876 5877 5878 5879 5880 5880 5881
5916 5914 5913 5911 5910 5909 5908 5906 5905 5903 5901 5898 5896 5894 5891 5889 5886 5884 5883 5882 5881 5879 5879 5878 5877 5877 5876 5876 5877 5877 5876 5876 5876 5876 5875 5875 5876 5876 5876 5876 5876 5877 5877 5878 5879 5880 5880 5881 5882
5918 5916 5915 5914 5913 5912 5911 5909 5907 5905 5902 5900 5898 5896 5893 5891 5888 5887 5885 5884 5883 5881 5880 5880 5879 5878 5878 5878 5878 5878 5878 5877 5877 5877 5877 5876 5877 5877 5877 5877 5878 5878 5878 5879 5880 5880 5881 5881 5882
5919 5919 5917 5916 5915 5914 5912 5911 5909 5906 5904 5902 5899 5897 5895 5893 5891 5889 5887 5886 5885 5884 5882 5881 5881 5880 5879 5879 5879 5879 5879 5879 5878 5878 5878 5878 5878 5878 5878 5878 5879 5879 5879 5879 5880 5881 5881 5882 5882
5921 5922 5920 5919 5918 5916 5914 5913 5911 5909 5907 5904 5901 5899 5897 5895 5893 5892 5890 5889 5887 5886 5885 5884 5883 5882 5881 5881 5881 5881 5880 5880 5879 5879 5880 5879 5879 5879 5879 5879 5879 5879 5880 5880 5881 5881 5881 5882 5883
5923 5923 5922 5921 5920 5918 5917 5915 5913 5910 5908 5906 5904 5901 5899 5897 5896 5894 5893 5891 5889 5888 5887 5886 5885 5884 5883 5883 5883 5882 5882 5881 5880 5881 5881 5881 5881 5881 5881 5881 5881 5880 5880 5881 5881 5881 5882 5882 5883
5924 5924 5923 5922 5921 5920 5919 5918 5915 5913 5911 5908 5906 5904 5901 5899 5897 5896 5895 5893 5891 5890 5889 5887 5887 5886 5886 5885 5884 5883 5883 5883 5883 5882 5882 5882 5882 5881 5881 5882 5882 5881 5881 5881 5882 5882 5882 5883 5883
5925 5925 5924 5923 5922 5922 5921 5919 5917 5915 5914 5911 5908 5906 5904 5902 5900 5898 5897 5895 5893 5892 5891 5890 5889 5888 5888 5887 5886 5885 5885 5884 5884 5884 5884 5883 5883 5883 5883 5883 5882 5882 5882 5883 5883 5883 5883 5883 5884
5926 5926 5925 5924 5924 5924 5923 5921 5920 5917 5915 5913 5911 5909 5907 5904 5902 5900 5899 5897 5896 5894 5893 5892 5891 5890 5890 5889 5887 5887 5886 5886 5885 5885 5885 5885 5885 5884 5884 5884 5884 5883 5883 5883 5884 5884 5884 5884 5884
5927 5927 5926 5925 5925 5925 5925 5924 5923 5920 5917 5915 5913 5911 5909 5907 5904 5902 5901 5899 5898 5897 5896 5894 5893 5892 5891 5890 5889 5888 5887 5887 5887 5886 5886 5886 5886 5886 5885 5885 5885 5885 5885 5885 5885 5885 5885 5885 5885
5928 5928 5927 5926 5927 5927 5927 5926 5924 5922 5920 5918 5916 5913 5911 5909 5907 5905 5903 5902 5901 5899 5898 5897 5896 5894 5893 5892 5891 5890 5890 5889 5889 5888 5887 5887 5887 5887 5887 5887 5886 5886 5886 5886 5886 5886 5886 5885 5885
5928 5928 5928 5927 5927 5928 5929 5927 5925 5923 5922 5920 5918 5916 5913 5911 5909 5907 5906 5904 5903 5901 5900 5899 5898 5896 5895 5894 5893 5893 5892 5891 5891 5890 5889 5888 5888 5887 5887 5887 5887 5887 5887 5887 5887 5887 5886 5886 5886
5928 5928 5928 5928 5928 5928 5929 5928 5926 5925 5923 5922 5920 5918 5916 5914 5912 5910 5908 5906 5905 5904 5902 5901 5900 5898 5897 5896 5895 5895 5894 5893 5893 5892 5891 5890 5889 5889 5888 5888 5888 5888 5888 5888 5887 5888 5887 5887 5887
5928 5927 5928 5928 5928 5928 5929 5928 5927 5926 5924 5923 5922 5920 5918 5916 5914 5912 5910 5909 5908 5906 5905 5903 5902 5901 5899 5898 5897 5897 5896 5895 5894 5894 5893 5892 5891 5890 5889 5889 5889 5889 5889 5888 5888 5888 5887 5887 5887
5927 5927 5927 5927 5927 5928 5928 5928 5928 5926 5925 5924 5923 5921 5919 5917 5916 5914 5913 5911 5910 5909 5907 5905 5904 5903 5902 5900 5899 5899 5898 5897 5896 5895 5894 5893 5892 5891 5890 5891 5890 5890 5889 5889 5888 5888 5887 5887 5886
5925 5925 5926 5926 5927 5927 5928 5928 5927 5927 5926 5925 5924 5922 5920 5918 5917 5916 5914 5913 5912 5910 5909 5907 5906 5905 5903 5902 5901 5900 5899 5898 5897 5896 5895 5894 5893 5892 5892 5892 5891 5890 5890 5889 5888 5888 5887 5886 5885
5922 5924 5925 5926 5926 5926 5927 5927 5926 5926 5926 5925 5924 5923 5922 5920 5918 5917 5916 5914 5913 5912 5910 5909 5908 5906 5905 5904 5903 5902 5900 5899 5898 5896 5896 5895 5894 5893 5892 5892 5891 5890 5889 5888 5888 5887 5886 5885 5884
5920 5922 5923 5924 5925 5925 5926 5925 5925 5926 5926 5925 5924 5923 5921 5921 5919 5918 5917 5915 5914 5913 5912 5910 5909 5907 5906 5905 5904 5903 5901 5900 5899 5898 5897 5896 5895 5894 5893 5892 5891 5890 5889 5888 5887 5886 5885 5884 5883
5918 5920 5921 5922 5922 5923 5923 5923 5925 5924 5924 5924 5924 5923 5922 5921 5920 5918 5917 5916 5915 5914 5913 5911 5910 5909 5908 5906 5905 5904 5902 5901 5900 5899 5897 5896 5895 5894 5893 5892 5891 5890 5889 5887 5886 5885 5884 5883 5882
5915 5916 5917 5919 5919 5920 5921 5921 5922 5922 5923 5923 5923 5922 5922 5921 5920 5919 5918 5917 5915 5914 5913 5912 5911 5910 5908 5907 5906 5904 5903 5901 5900 5899 5898 5896 5895 5894 5893 5892 5891 5890 5888 5887 5886 5885 5883 5882 5881
5910 5912 5914 5915 5916 5917 5919 5918 5920 5921 5921 5922 5922 5922 5921 5921 5920 5919 5918 5917 5916 5915 5914 5912 5911 5910 5909 5907 5906 5905 5903 5902 5900 5899 5898 5896 5895 5894 5892 5891 5890 5889 5888 5886 5885 5883 5882 5880 5879
5905 5908 5910 5912 5913 5914 5915 5915 5918 5918 5919 5919 5919 5920 5920 5919 5919 5918 5917 5917 5916 5915 5914 5912 5911 5910 5909 5907 5906 5905 5903 5902 5900 5899 5897 5896 5894 5893 5892 5891 5889 5888 5886 5885 5883 5882 5880 5878 5877
5900 5903 5906 5908 5909 5910 5911 5912 5914 5914 5915 5916 5916 5917 5917 5918 5917 5917 5916 5916 5915 5914 5914 5912 5911 5910 5908 5907 5906 5904 5903 5902 5900 5898 5897 5895 5894 5893 5891 5890 5888 5887 5885 5884 5882 5880 5878 5876 5875
5895 5898 5901 5902 5903 5905 5907 5908 5910 5911 5912 5912 5913 5914 5914 5916 5916 5916 5915 5915 5915 5913 5913 5912 5910 5909 5907 5906 5905 5903 5902 5901 5899 5898 5896 5895 5893 5892 5890 5889 5887 5885 5883 5882 5880 5878 5876 5874 5872
5889 5892 5894 5896 5899 5901 5902 5907 5907 5907 5908 5909 5910 5911 5912 5913 5913 5914 5914 5914 5913 5912 5911 5910 5909 5908 5907 5905 5904 5903 5901 5900 5898 5897 5895 5894 5892 5890 5889 5887 5885 5883 5881 5879 5877 5875 5873 5870 5868
5883 5886 5889 5891 5893 5895 5897 5903 5903 5903 5904 5906 5907 5908 5909 5910 5910 5910 5911 5911 5911 5910 5910 5909 5908 5906 5905 5904 5903 5901 5900 5898 5897 5895 5893 5891 5890 5888 5886 5884 5882 5881 5878 5876 5874 5872 5869 5867 5864